Location: Cosy Dell
(34.2789°N, 117.4537°W)
Time: 20:53:07
(UTC+00:00)

OAO 3 Copernicus - Pass Details

Date: 14 July 2020
Orbit: 695 x 704 km, 35.0° (Epoch: 13 August)

Event Time Altitude Azimuth Distance (km) Brightness Sun altitude
Rises 04:45:46 0° 273° (W) 3,080 8.4 -18.2°
Reaches altitude 10° 04:48:10 10° 275° (W) 2,161 7.5 -18.5°
Maximum altitude 04:53:15 82° 3° (N) 710 4.3 -19.3°
Enters shadow 04:55:51 29° 88° (E) 1,261 5.3 -19.6°
